Location: Newark
(55.7083°N, 13.1992°E)
Time: 06:31:18
(UTC+00:00)

Transit 4A - Pass Details

Date: 24 February 2020
Orbit: 871 x 973 km, 66.8° (Epoch: 07 April)

Event Time Altitude Azimuth Distance (km) Brightness Sun altitude
Exits shadow 00:20:48 18° 41° (NE) 2,000 10.1 -42.5°
Drops below altitude 10° 00:22:15 10° 43° (NE) 2,531 10.7 -42.4°
Sets 00:24:44 0° 45° (NE) 3,473 11.6 -42.3°
